Back to catalog

FENGYUN 2A AKM

AliveMEO
NORAD 25611·ROCKET BODY·🇨🇳 China

Launched Jun 10, 1997 from Xichang Satellite Launch Center

Loading…

Next Passes (next 24 hours)

TLE

FreshSource: Space-Track

Epoch: Sep 14, 2026, 05:43 UTC

1 25611U 97029C   26257.23828380 -.00000261  00000-0  00000-0 0  9998
2 25611  13.8363 352.5643 0223504  82.8971 297.5798  1.02878357 49506

Track FENGYUN 2A AKM in real time with AllMySat

Download on the App Store